GW3903 Weather Reports


time (UTC)temp
C
wind
direction
speed
KPH
gust
KPH
rain 1hr
cm
rain 24hr
cm
rain mn
cm
humidity
%
barometer
mb
20260506122738 20 280 8.0 11.3 0.00 0.00 0.00 70 1006.7
20260506122236 19 273 3.2 4.8 0.00 0.00 0.00 70 1006.7
20260506121734 20 278 3.2 3.2 0.00 0.00 0.00 70 1006.5
20260506121230 20 276 6.4 9.7 0.00 0.00 0.00 70 1006.7
20260506120727 20 355 1.6 1.6 0.00 0.00 0.00 70 1006.6
20260506120225 20 122 4.8 6.4 0.00 0.00 0.00 70 1006.9
20260506115723 20 275 8.0 9.7 0.00 0.00 0.00 70 1006.9
20260506115221 20 241 4.8 9.7 0.00 0.00 0.00 70 1006.8
20260506114718 19 223 4.8 6.4 0.00 0.00 0.00 71 1006.8
20260506114216 19 303 6.4 6.4 0.00 0.00 0.00 71 1006.7
20260506113714 19 245 3.2 4.8 0.00 0.00 0.00 72 1006.7
20260506113211 19 181 1.6 4.8 0.00 0.00 0.00 72 1006.6
20260506112707 19 264 8.0 9.7 0.00 0.00 0.00 73 1006.7
20260506112205 19 245 6.4 11.3 0.00 0.00 0.00 73 1006.7
20260506111702 18 263 6.4 6.4 0.00 0.00 0.00 73 1006.5
20260506111201 18 313 3.2 3.2 0.00 0.00 0.00 74 1006.6
20260506110657 18 187 4.8 6.4 0.00 0.00 0.00 74 1006.6
20260506110155 18 260 6.4 6.4 0.00 0.00 0.00 74 1006.5
20260506105651 18 266 1.6 3.2 0.00 0.00 0.00 75 1006.5
20260506105148 18 204 3.2 3.2 0.00 0.00 0.00 75 1006.6
20260506104646 18 182 6.4 9.7 0.00 0.00 0.00 75 1006.7
20260506104144 18 201 6.4 9.7 0.00 0.00 0.00 75 1006.8
20260506103641 18 281 3.2 3.2 0.00 0.00 0.00 75 1006.7
20260506103137 18 92 4.8 6.4 0.00 0.00 0.00 74 1006.6
20260506102636 18 291 3.2 3.2 0.00 0.00 0.00 74 1006.5
20260506102133 18 72 3.2 4.8 0.00 0.00 0.00 74 1006.6
20260506101629 18 271 3.2 3.2 0.00 0.00 0.00 74 1006.7
20260506101126 18 235 4.8 6.4 0.00 0.00 0.00 74 1006.5
20260506100625 18 321 3.2 4.8 0.00 0.00 0.00 75 1006.1
20260506100122 18 295 1.6 1.6 0.00 0.00 0.00 74 1006.1
20260506095621 18 276 3.2 4.8 0.00 0.00 0.00 74 1006.3
20260506095117 18 15 3.2 3.2 0.00 0.00 0.00 74 1006.1
20260506094615 18 276 11.3 12.9 0.00 0.00 0.00 74 1006.4
20260506094112 18 241 1.6 3.2 0.00 0.00 0.00 74 1006.6
20260506093611 18 287 0.0 1.6 0.00 0.00 0.00 74 1006.3
20260506093108 18 305 4.8 6.4 0.00 0.00 0.00 74 1006.5
20260506092605 18 335 0.0 1.6 0.00 0.00 0.00 74 1006.3
20260506092102 18 249 1.6 3.2 0.00 0.00 0.00 74 1006.3
20260506091600 18 143 3.2 4.8 0.00 0.00 0.00 73 1006.2
20260506091057 18 248 3.2 3.2 0.00 0.00 0.00 73 1006.3
20260506090555 18 334 1.6 1.6 0.00 0.00 0.00 73 1006.4
20260506090051 18 219 4.8 6.4 0.00 0.00 0.00 72 1006.1
20260506085548 18 229 4.8 6.4 0.00 0.00 0.00 71 1006.5
20260506085044 18 309 3.2 4.8 0.00 0.00 0.00 71 1006.4
20260506084542 18 221 4.8 6.4 0.00 0.00 0.00 70 1006.4
20260506084038 18 273 3.2 3.2 0.00 0.00 0.00 70 1006.4
20260506083535 18 204 4.8 4.8 0.00 0.00 0.00 69 1006.8
20260506083032 18 260 1.6 6.4 0.00 0.00 0.00 69 1006.6
20260506082529 19 307 1.6 3.2 0.00 0.00 0.00 69 1006.7
20260506082025 19 18 3.2 3.2 0.00 0.00 0.00 68 1006.7
20260506081523 19 347 1.6 1.6 0.00 0.00 0.00 67 1006.7
20260506081020 19 307 3.2 4.8 0.00 0.00 0.00 67 1006.9
20260506080518 19 207 1.6 3.2 0.00 0.00 0.00 67 1006.6
20260506073501 20 190 4.8 4.8 0.00 0.00 0.00 62 1006.7
20260506072958 20 298 1.6 1.6 0.00 0.00 0.00 62 1006.8
20260506072455 20 283 1.6 1.6 0.00 0.00 0.00 62 1006.6
20260506071953 20 36 3.2 4.8 0.00 0.00 0.00 61 1006.6
20260506071451 20 295 3.2 3.2 0.00 0.00 0.00 61 1006.8
20260506070947 20 264 4.8 4.8 0.00 0.00 0.00 60 1006.8
20260506070445 20 233 4.8 4.8 0.00 0.00 0.00 60 1007.0
20260506062422 21 306 1.6 3.2 0.00 0.00 0.00 57 1006.9
20260506061918 21 279 3.2 3.2 0.00 0.00 0.00 57 1006.9
20260506061415 21 226 6.4 11.3 0.00 0.00 0.00 57 1006.7
20260506060913 21 273 1.6 1.6 0.00 0.00 0.00 56 1006.8
20260506060410 21 243 3.2 4.8 0.00 0.00 0.00 56 1006.9
20260506051342 22 229 3.2 4.8 0.00 0.00 0.00 54 1007.4
20260506050840 22 203 9.7 12.9 0.00 0.00 0.00 54 1007.5
20260506050337 21 263 9.7 12.9 0.00 0.00 0.00 54 1007.2
20260506044827 22 316 3.2 4.8 0.00 0.00 0.00 54 1007.4
20260506044325 22 244 4.8 6.4 0.00 0.00 0.00 55 1007.4
20260506043822 22 243 1.6 4.8 0.00 0.00 0.00 55 1007.4
20260506043319 22 178 4.8 9.7 0.00 0.00 0.00 55 1007.4
20260506042818 22 191 4.8 4.8 0.00 0.00 0.00 54 1007.5
20260506042317 22 192 4.8 6.4 0.00 0.00 0.00 54 1007.3
20260506041815 22 150 6.4 9.7 0.00 0.00 0.00 54 1007.1
20260506041311 22 24 3.2 3.2 0.00 0.00 0.00 53 1007.2
20260506040808 22 44 1.6 1.6 0.00 0.00 0.00 53 1007.3
20260506040305 22 280 0.0 1.6 0.00 0.00 0.00 53 1007.2
20260506035802 22 242 1.6 3.2 0.00 0.00 0.00 52 1007.3
20260506035259 22 249 3.2 4.8 0.00 0.00 0.00 52 1007.2
20260506034757 22 141 4.8 4.8 0.00 0.00 0.00 51 1007.2
20260506034254 22 208 3.2 4.8 0.00 0.00 0.00 51 1007.3
20260506033750 22 345 6.4 9.7 0.00 0.00 0.00 50 1007.3
20260506033248 22 263 4.8 6.4 0.00 0.00 0.00 49 1007.3
20260506032744 22 245 1.6 3.2 0.00 0.00 0.00 49 1007.2
20260506032241 22 209 4.8 6.4 0.00 0.00 0.00 48 1007.3
20260506031738 22 156 1.6 3.2 0.00 0.00 0.00 48 1007.1
20260506031236 23 349 3.2 4.8 0.00 0.00 0.00 47 1007.2
20260506030733 23 310 1.6 3.2 0.00 0.00 0.00 46 1007.2
20260506030230 23 203 1.6 3.2 0.00 0.00 0.00 46 1007.1
20260506025722 23 281 3.2 4.8 0.00 0.00 0.00 45 1007.2
20260506025218 23 208 6.4 6.4 0.00 0.00 0.00 45 1007.1
20260506024715 23 280 1.6 3.2 0.00 0.00 0.00 44 1007.0
20260506024212 23 243 3.2 3.2 0.00 0.00 0.00 44 1006.9
20260506023708 23 307 1.6 3.2 0.00 0.00 0.00 44 1006.9
20260506023205 24 87 6.4 12.9 0.00 0.00 0.00 43 1006.9
20260506022702 24 147 3.2 4.8 0.00 0.00 0.00 44 1006.9
20260506022200 24 314 3.2 3.2 0.00 0.00 0.00 43 1006.8
20260506021658 24 225 6.4 6.4 0.00 0.00 0.00 43 1006.8
20260506021154 24 138 6.4 6.4 0.00 0.00 0.00 43 1006.8
20260506020651 24 314 8.0 11.3 0.00 0.00 0.00 43 1006.8
20260506020149 24 87 3.2 4.8 0.00 0.00 0.00 43 1006.8
20260506015646 24 212 3.2 4.8 0.00 0.00 0.00 42 1006.8
20260506015143 24 320 3.2 6.4 0.00 0.00 0.00 42 1006.8
20260506014635 24 170 4.8 9.7 0.00 0.00 0.00 41 1006.7
20260506014131 24 292 3.2 3.2 0.00 0.00 0.00 41 1006.7
20260506013629 25 87 3.2 3.2 0.00 0.00 0.00 40 1006.7
20260506013126 25 237 3.2 3.2 0.00 0.00 0.00 39 1006.7
20260506012622 25 159 3.2 3.2 0.00 0.00 0.00 39 1006.7
20260506012118 25 35 1.6 3.2 0.00 0.00 0.00 39 1006.6
20260506011616 25 262 1.6 3.2 0.00 0.00 0.00 38 1006.5
20260506011112 25 196 3.2 4.8 0.00 0.00 0.00 38 1006.4
20260506010612 25 92 3.2 4.8 0.00 0.00 0.00 37 1006.3
20260506010108 25 254 1.6 3.2 0.00 0.00 0.00 37 1006.2
20260506005605 25 187 8.0 14.5 0.00 0.00 0.00 37 1006.1
20260506005101 25 188 3.2 4.8 0.00 0.00 0.00 37 1006.1
20260506004558 25 244 9.7 11.3 0.00 0.00 0.00 37 1006.2
20260506004055 25 176 1.6 3.2 0.00 0.00 0.00 37 1006.2
20260506003551 25 185 0.0 1.6 0.00 0.00 0.00 37 1006.3
20260506003048 25 229 6.4 9.7 0.00 0.00 0.00 36 1006.2
20260506002543 25 266 8.0 11.3 0.00 0.00 0.00 37 1006.0
20260506002040 25 259 3.2 4.8 0.00 0.00 0.00 36 1005.9
20260506001536 25 287 0.0 0.0 0.00 0.00 0.00 36 1005.9
20260506001033 25 252 3.2 3.2 0.00 0.00 0.00 36 1006.0
20260506000531 25 315 0.0 0.0 0.00 0.00 0.00 36 1006.0
20260506000028 25 211 3.2 3.2 0.00 0.00 0.00 36 1005.8
20260505235526 25 233 3.2 4.8 0.00 0.00 0.00 36 1005.8
20260505235022 25 256 6.4 6.4 0.00 0.00 0.00 35 1005.9
20260505234519 25 346 1.6 3.2 0.00 0.00 0.00 35 1005.6
20260505234016 26 297 4.8 6.4 0.00 0.00 0.00 34 1005.7
20260505233514 26 243 6.4 9.7 0.00 0.00 0.00 34 1005.7
20260505233011 26 300 1.6 1.6 0.00 0.00 0.00 35 1005.5
20260505232509 26 314 1.6 3.2 0.00 0.00 0.00 34 1005.3
20260505232006 26 266 1.6 3.2 0.00 0.00 0.00 34 1005.3
20260505231503 26 240 6.4 9.7 0.00 0.00 0.00 34 1005.3
20260505231002 26 308 1.6 3.2 0.00 0.00 0.00 34 1005.3
20260505230458 26 170 1.6 4.8 0.00 0.00 0.00 34 1005.2
20260505225955 26 252 1.6 4.8 0.00 0.00 0.00 33 1005.2
20260505225452 26 287 4.8 6.4 0.00 0.00 0.00 33 1004.9
20260505224948 26 208 4.8 6.4 0.00 0.00 0.00 33 1005.1
20260505224445 26 296 3.2 4.8 0.00 0.00 0.00 33 1004.8
20260505223942 27 193 8.0 11.3 0.00 0.00 0.00 32 1004.9
20260505223439 27 280 11.3 14.5 0.00 0.00 0.00 32 1005.0
20260505222935 27 84 1.6 4.8 0.00 0.00 0.00 33 1005.0
20260505222432 27 294 4.8 6.4 0.00 0.00 0.00 33 1004.7
20260505221927 27 198 3.2 3.2 0.00 0.00 0.00 33 1004.6
20260505221425 27 278 4.8 4.8 0.00 0.00 0.00 33 1004.6
20260505220922 27 225 4.8 6.4 0.00 0.00 0.00 32 1004.5
20260505220419 27 235 8.0 12.9 0.00 0.00 0.00 32 1004.5
20260505215917 27 228 8.0 11.3 0.00 0.00 0.00 33 1004.4
20260505215415 27 229 3.2 3.2 0.00 0.00 0.00 34 1004.3
20260505214912 27 250 6.4 9.7 0.00 0.00 0.00 34 1004.4
20260505214410 27 266 8.0 11.3 0.00 0.00 0.00 34 1004.7
20260505213907 28 196 1.6 3.2 0.00 0.00 0.00 33 1004.4
20260505213405 28 59 3.2 4.8 0.00 0.00 0.00 33 1004.6
20260505212900 27 226 6.4 6.4 0.00 0.00 0.00 33 1004.5
20260505212357 27 225 1.6 3.2 0.00 0.00 0.00 34 1004.4
20260505211854 27 202 4.8 6.4 0.00 0.00 0.00 33 1004.3
20260505211351 27 271 3.2 4.8 0.00 0.00 0.00 33 1004.3
20260505210847 27 263 6.4 12.9 0.00 0.00 0.00 33 1004.3
20260505210345 28 246 9.7 17.7 0.00 0.00 0.00 32 1004.2
20260505205841 28 198 3.2 6.4 0.00 0.00 0.00 32 1003.9
20260505205340 28 225 6.4 9.7 0.00 0.00 0.00 31 1004.0
20260505204836 28 283 6.4 12.9 0.00 0.00 0.00 33 1004.0
20260505204334 28 201 9.7 14.5 0.00 0.00 0.00 32 1004.0
20260505203831 29 239 6.4 11.3 0.00 0.00 0.00 32 1004.0
20260505203327 28 273 3.2 3.2 0.00 0.00 0.00 32 1004.1
20260505202824 29 203 17.7 22.5 0.00 0.00 0.00 31 1004.2
20260505202320 28 254 6.4 9.7 0.00 0.00 0.00 32 1004.2
20260505201817 28 273 3.2 3.2 0.00 0.00 0.00 32 1004.5
20260505201314 28 145 4.8 4.8 0.00 0.00 0.00 32 1004.5
20260505200813 29 252 4.8 6.4 0.00 0.00 0.00 32 1004.5
20260505200309 28 208 14.5 22.5 0.00 0.00 0.00 32 1004.5
20260505195810 28 179 6.4 9.7 0.00 0.00 0.00 33 1004.5
20260505195308 28 285 8.0 12.9 0.00 0.00 0.00 33 1004.5
20260505194804 28 221 4.8 9.7 0.00 0.00 0.00 32 1004.6
20260505194302 28 298 16.1 27.4 0.00 0.00 0.00 33 1004.6
20260505193757 29 219 8.0 11.3 0.00 0.00 0.00 33 1004.6
20260505193255 28 192 9.7 14.5 0.00 0.00 0.00 32 1004.8
20260505192753 28 257 9.7 12.9 0.00 0.00 0.00 32 1004.9
20260505192251 29 117 12.9 17.7 0.00 0.00 0.00 31 1004.8
20260505191748 28 246 1.6 1.6 0.00 0.00 0.00 32 1004.9
20260505191247 28 224 12.9 17.7 0.00 0.00 0.00 33 1005.0
20260505190742 28 171 3.2 6.4 0.00 0.00 0.00 34 1005.1
20260505190237 29 219 14.5 20.9 0.00 0.00 0.00 33 1005.0
20260505185734 29 159 6.4 9.7 0.00 0.00 0.00 32 1005.2
20260505185231 28 159 8.0 12.9 0.00 0.00 0.00 34 1005.0
20260505184727 28 212 8.0 11.3 0.00 0.00 0.00 34 1005.1
20260505184225 28 80 8.0 11.3 0.00 0.00 0.00 35 1005.2
20260505183721 28 233 6.4 9.7 0.00 0.00 0.00 35 1005.4
20260505183219 28 253 12.9 22.5 0.00 0.00 0.00 36 1005.8
20260505182714 28 314 3.2 4.8 0.00 0.00 0.00 37 1005.5
20260505182212 29 330 4.8 4.8 0.00 0.00 0.00 34 1005.8
20260505181708 28 261 3.2 3.2 0.00 0.00 0.00 33 1005.6
20260505181206 28 283 6.4 6.4 0.00 0.00 0.00 34 1005.8
20260505180702 29 235 1.6 1.6 0.00 0.00 0.00 33 1005.6
20260505180159 28 207 12.9 17.7 0.00 0.00 0.00 33 1005.9
20260505175655 28 332 11.3 12.9 0.00 0.00 0.00 34 1005.9
20260505175151 28 178 17.7 25.7 0.00 0.00 0.00 34 1005.6
20260505174648 28 166 11.3 12.9 0.00 0.00 0.00 35 1005.8
20260505174144 28 273 3.2 4.8 0.00 0.00 0.00 37 1005.9
20260505173641 27 295 6.4 6.4 0.00 0.00 0.00 37 1005.8
20260505173138 28 261 11.3 14.5 0.00 0.00 0.00 37 1005.9
20260505172635 28 236 9.7 12.9 0.00 0.00 0.00 36 1005.9
20260505172132 28 278 4.8 4.8 0.00 0.00 0.00 38 1005.9
20260505171631 27 164 1.6 1.6 0.00 0.00 0.00 37 1005.8
20260505171129 28 270 8.0 11.3 0.00 0.00 0.00 37 1006.1
20260505170626 27 237 4.8 9.7 0.00 0.00 0.00 38 1006.0
20260505170122 27 329 1.6 3.2 0.00 0.00 0.00 39 1006.0
20260505165617 28 264 16.1 20.9 0.00 0.00 0.00 38 1006.2
20260505165114 28 240 4.8 6.4 0.00 0.00 0.00 37 1006.3
20260505164609 27 161 12.9 16.1 0.00 0.00 0.00 38 1006.6
20260505164108 28 328 3.2 3.2 0.00 0.00 0.00 38 1006.3
20260505163606 27 218 4.8 4.8 0.00 0.00 0.00 37 1006.6
20260505163102 27 117 4.8 9.7 0.00 0.00 0.00 38 1006.6
20260505162600 27 220 8.0 9.7 0.00 0.00 0.00 38 1006.7
20260505162058 27 243 9.7 12.9 0.00 0.00 0.00 37 1006.7
20260505161554 27 301 4.8 6.4 0.00 0.00 0.00 38 1007.1
20260505161052 27 54 6.4 6.4 0.00 0.00 0.00 37 1007.2
20260505160550 27 227 4.8 4.8 0.00 0.00 0.00 38 1007.1
20260505153026 26 133 8.0 12.9 0.00 0.00 0.00 41 1007.6
20260505152523 26 255 4.8 4.8 0.00 0.00 0.00 43 1007.4
20260505152019 26 289 1.6 1.6 0.00 0.00 0.00 42 1007.5
20260505151514 26 170 6.4 9.7 0.00 0.00 0.00 41 1007.2
20260505151011 26 8 3.2 3.2 0.00 0.00 0.00 43 1007.4
20260505150508 26 157 6.4 9.7 0.00 0.00 0.00 43 1007.4
20260505140427 24 217 4.8 4.8 0.00 0.00 0.00 47 1007.8
20260505124841 17 332 0.0 1.6 0.00 0.00 0.00 70 1007.7
20260505124337 17 334 3.2 3.2 0.00 0.00 0.00 71 1007.7
20260505123833 17 329 0.0 0.0 0.00 0.00 0.00 72 1007.7
20260505123330 17 28 3.2 3.2 0.00 0.00 0.00 72 1008.1